International Skating Union - Official Site

Essent ISU World Cup Hamar
February 11-12, 2012

Draw | Lap Times | Index | World Cup

Referee: Jan  BOLT  (NED)
Starter: Ole Herman  SÖRLI  (NOR)
StartTime: EndTime: Air Temp: Ice Temp: Humidity:
16:08 17:46 12℃ -7.4℃ 27%
Result 5000m Men Division A
Rankings as of Feb 11 2012 5:55PM
Rank: No.: Name: Nation: Time: Behind: Points:
1 40 Bob  de JONG NED NED 6:21.23200m - 19.83 - (19.8)
600m - 50.32 - (30.4)
1000m - 1:21.02 - (30.7)
1400m - 1:51.38 - (30.3)
1800m - 2:21.69 - (30.3)
2200m - 2:51.78 - (30.0)
2600m - 3:21.96 - (30.1)
3000m - 3:52.05 - (30.0)
3400m - 4:21.88 - (29.8)
3800m - 4:51.70 - (29.8)
4200m - 5:21.97 - (30.2)
4600m - 5:51.84 - (29.8)
5000m - 6:21.23 - (29.3)
100
2 44 Sven  KRAMER NED NED 6:21.87200m - 19.28 - (19.2)
600m - 49.89 - (30.6)
1000m - 1:20.39 - (30.5)
1400m - 1:51.17 - (30.7)
1800m - 2:21.32 - (30.1)
2200m - 2:51.59 - (30.2)
2600m - 3:20.78 - (29.2)
3000m - 3:50.56 - (29.7)
3400m - 4:20.56 - (30.0)
3800m - 4:50.90 - (30.3)
4200m - 5:21.42 - (30.5)
4600m - 5:51.99 - (30.5)
5000m - 6:21.87 - (29.8)
0.64 80
3 39 Jan  BLOKHUIJSEN NED NED 6:22.47200m - 18.50 - (18.5)
600m - 47.67 - (29.1)
1000m - 1:17.38 - (29.7)
1400m - 1:47.60 - (30.2)
1800m - 2:17.70 - (30.1)
2200m - 2:47.95 - (30.2)
2600m - 3:18.41 - (30.4)
3000m - 3:49.00 - (30.5)
3400m - 4:19.53 - (30.5)
3800m - 4:50.10 - (30.5)
4200m - 5:20.73 - (30.6)
4600m - 5:51.44 - (30.7)
5000m - 6:22.47 - (31.0)
1.24 70
4 16 Alexis  CONTIN FRA FRA 6:24.30200m - 18.51 - (18.5)
600m - 47.53 - (29.0)
1000m - 1:17.57 - (30.0)
1400m - 1:47.57 - (30.0)
1800m - 2:17.41 - (29.8)
2200m - 2:47.81 - (30.4)
2600m - 3:17.94 - (30.1)
3000m - 3:48.55 - (30.6)
3400m - 4:19.13 - (30.5)
3800m - 4:50.03 - (30.9)
4200m - 5:21.45 - (31.4)
4600m - 5:52.87 - (31.4)
5000m - 6:24.30 - (31.4)
3.07 60
5 47 Håvard  BØKKO NOR NOR 6:25.09200m - 18.28 - (18.2)
600m - 47.39 - (29.1)
1000m - 1:17.27 - (29.8)
1400m - 1:47.52 - (30.2)
1800m - 2:17.88 - (30.3)
2200m - 2:48.00 - (30.1)
2600m - 3:18.49 - (30.4)
3000m - 3:49.17 - (30.6)
3400m - 4:19.81 - (30.6)
3800m - 4:50.89 - (31.0)
4200m - 5:22.54 - (31.6)
4600m - 5:53.87 - (31.3)
5000m - 6:25.09 - (31.2)
3.86 50
6 53 Sverre  LUNDE PEDERSEN NOR NOR 6:29.02200m - 18.84 - (18.8)
600m - 49.42 - (30.5)
1000m - 1:20.27 - (30.8)
1400m - 1:51.33 - (31.0)
1800m - 2:22.10 - (30.7)
2200m - 2:53.05 - (30.9)
2600m - 3:24.22 - (31.1)
3000m - 3:54.86 - (30.6)
3400m - 4:25.60 - (30.7)
3800m - 4:56.33 - (30.7)
4200m - 5:27.03 - (30.7)
4600m - 5:57.71 - (30.6)
5000m - 6:29.02 - (31.3)
7.79 45
7 20 Moritz  GEISREITER GER GER 6:32.71200m - 18.89 - (18.8)
600m - 48.01 - (29.1)
1000m - 1:18.19 - (30.1)
1400m - 1:48.99 - (30.8)
1800m - 2:19.42 - (30.4)
2200m - 2:50.28 - (30.8)
2600m - 3:21.46 - (31.1)
3000m - 3:52.98 - (31.5)
3400m - 4:24.41 - (31.4)
3800m - 4:56.37 - (31.9)
4200m - 5:28.65 - (32.2)
4600m - 6:00.67 - (32.0)
5000m - 6:32.71 - (32.0)
11.48 40
8 4 Bart  SWINGS BEL BEL 6:33.62200m - 19.51 - (19.5)
600m - 49.68 - (30.1)
1000m - 1:20.55 - (30.8)
1400m - 1:51.44 - (30.8)
1800m - 2:22.42 - (30.9)
2200m - 2:53.38 - (30.9)
2600m - 3:24.70 - (31.3)
3000m - 3:56.01 - (31.3)
3400m - 4:27.56 - (31.5)
3800m - 4:59.16 - (31.6)
4200m - 5:31.25 - (32.0)
4600m - 6:02.38 - (31.1)
5000m - 6:33.62 - (31.2)
12.39 36
9 18 Alexej  BAUMGÄRTNER GER GER 6:34.02200m - 19.85 - (19.8)
600m - 49.84 - (29.9)
1000m - 1:19.84 - (29.9)
1400m - 1:50.49 - (30.6)
1800m - 2:21.11 - (30.6)
2200m - 2:52.08 - (30.9)
2600m - 3:23.26 - (31.1)
3000m - 3:54.79 - (31.5)
3400m - 4:26.45 - (31.6)
3800m - 4:58.29 - (31.8)
4200m - 5:30.34 - (32.0)
4600m - 6:02.41 - (32.0)
5000m - 6:34.02 - (31.6)
12.79 32
10 19 Patrick  BECKERT GER GER 6:34.48200m - 19.64 - (19.6)
600m - 50.55 - (30.9)
1000m - 1:22.02 - (31.4)
1400m - 1:53.46 - (31.4)
1800m - 2:24.75 - (31.2)
2200m - 2:56.17 - (31.4)
2600m - 3:27.50 - (31.3)
3000m - 3:58.73 - (31.2)
3400m - 4:29.77 - (31.0)
3800m - 5:01.05 - (31.2)
4200m - 5:32.18 - (31.1)
4600m - 6:03.38 - (31.2)
5000m - 6:34.48 - (31.1)
13.25 28
11 55 Shane  DOBBIN NZL NZL 6:34.81200m - 19.71 - (19.7)
600m - 50.77 - (31.0)
1000m - 1:22.20 - (31.4)
1400m - 1:53.59 - (31.3)
1800m - 2:24.85 - (31.2)
2200m - 2:56.23 - (31.3)
2600m - 3:27.31 - (31.0)
3000m - 3:58.51 - (31.2)
3400m - 4:29.69 - (31.1)
3800m - 5:00.96 - (31.2)
4200m - 5:32.41 - (31.4)
4600m - 6:03.58 - (31.1)
5000m - 6:34.81 - (31.2)
13.58 24
12 31 Dmitry  BABENKO KAZ KAZ 6:36.56200m - 19.13 - (19.1)
600m - 49.57 - (30.4)
1000m - 1:21.01 - (31.4)
1400m - 1:52.04 - (31.0)
1800m - 2:23.14 - (31.1)
2200m - 2:54.42 - (31.2)
2600m - 3:25.82 - (31.4)
3000m - 3:57.17 - (31.3)
3400m - 4:28.61 - (31.4)
3800m - 4:59.97 - (31.3)
4200m - 5:31.94 - (31.9)
4600m - 6:04.14 - (32.2)
5000m - 6:36.56 - (32.4)
15.33 21
13 37 Seung-Hoon  LEE KOR KOR 6:36.75200m - 19.18 - (19.1)
600m - 49.87 - (30.6)
1000m - 1:21.53 - (31.6)
1400m - 1:52.66 - (31.1)
1800m - 2:24.07 - (31.4)
2200m - 2:55.41 - (31.3)
2600m - 3:26.90 - (31.4)
3000m - 3:58.45 - (31.5)
3400m - 4:30.14 - (31.6)
3800m - 5:01.97 - (31.8)
4200m - 5:34.10 - (32.1)
4600m - 6:05.60 - (31.5)
5000m - 6:36.75 - (31.1)
15.52 18
14 23 Marco  WEBER GER GER 6:36.93200m - 19.44 - (19.4)
600m - 50.23 - (30.8)
1000m - 1:21.36 - (31.1)
1400m - 1:52.81 - (31.4)
1800m - 2:24.10 - (31.2)
2200m - 2:55.54 - (31.4)
2600m - 3:26.98 - (31.4)
3000m - 3:58.67 - (31.6)
3400m - 4:30.32 - (31.6)
3800m - 5:02.27 - (31.9)
4200m - 5:34.16 - (31.8)
4600m - 6:05.87 - (31.7)
5000m - 6:36.93 - (31.0)
15.70 16
15 6 Jordan  BELCHOS CAN CAN 6:37.10200m - 19.69 - (19.6)
600m - 50.23 - (30.5)
1000m - 1:20.84 - (30.6)
1400m - 1:51.78 - (30.9)
1800m - 2:22.66 - (30.8)
2200m - 2:53.83 - (31.1)
2600m - 3:25.50 - (31.6)
3000m - 3:57.17 - (31.6)
3400m - 4:28.84 - (31.6)
3800m - 5:00.84 - (31.9)
4200m - 5:33.10 - (32.2)
4600m - 6:05.00 - (31.9)
5000m - 6:37.10 - (32.1)
15.87 14
16 17 Ewen  FERNANDEZ FRA FRA 6:40.26200m - 18.61 - (18.6)
600m - 48.05 - (29.4)
1000m - 1:18.55 - (30.5)
1400m - 1:49.28 - (30.7)
1800m - 2:20.22 - (30.9)
2200m - 2:51.78 - (31.5)
2600m - 3:23.66 - (31.8)
3000m - 3:55.74 - (32.0)
3400m - 4:27.75 - (32.0)
3800m - 5:00.40 - (32.6)
4200m - 5:33.35 - (32.9)
4600m - 6:06.82 - (33.4)
5000m - 6:40.26 - (33.4)
19.03 12
17 35 Hyung-Joon  JOO KOR KOR 6:40.91200m - 19.96 - (19.9)
600m - 50.95 - (30.9)
1000m - 1:22.25 - (31.3)
1400m - 1:54.01 - (31.7)
1800m - 2:25.86 - (31.8)
2200m - 2:57.90 - (32.0)
2600m - 3:30.27 - (32.3)
3000m - 4:02.60 - (32.3)
3400m - 4:34.49 - (31.8)
3800m - 5:06.73 - (32.2)
4200m - 5:38.36 - (31.6)
4600m - 6:09.97 - (31.6)
5000m - 6:40.91 - (30.9)
19.68 10
18 49 Øystein  GRØDUM NOR NOR 6:43.40200m - 20.47 - (20.4)
600m - 51.78 - (31.3)
1000m - 1:23.41 - (31.6)
1400m - 1:55.33 - (31.9)
1800m - 2:27.07 - (31.7)
2200m - 2:58.87 - (31.7)
2600m - 3:30.89 - (32.0)
3000m - 4:02.82 - (31.9)
3400m - 4:34.97 - (32.1)
3800m - 5:07.03 - (32.0)
4200m - 5:39.48 - (32.4)
4600m - 6:11.52 - (32.0)
5000m - 6:43.40 - (31.8)
22.17 8
19 48 Kristian Reistad  FREDRIKSEN NOR NOR 6:53.06200m - 18.97 - (18.9)
600m - 48.65 - (29.6)
1000m - 1:18.36 - (29.7)
1400m - 1:48.17 - (29.8)
1800m - 2:18.89 - (30.7)
2200m - 2:50.53 - (31.6)
2600m - 3:22.80 - (32.2)
3000m - 3:55.38 - (32.5)
3400m - 4:29.20 - (33.8)
3800m - 5:04.66 - (35.4)
4200m - 5:41.11 - (36.4)
4600m - 6:17.27 - (36.1)
5000m - 6:53.06 - (35.7)
31.83 6
20 28 Hiroki  HIRAKO JPN JPN 6:53.29200m - 19.65 - (19.6)
600m - 50.89 - (31.2)
1000m - 1:22.74 - (31.8)
1400m - 1:54.95 - (32.2)
1800m - 2:27.42 - (32.4)
2200m - 3:00.26 - (32.8)
2600m - 3:33.52 - (33.2)
3000m - 4:07.16 - (33.6)
3400m - 4:40.72 - (33.5)
3800m - 5:14.10 - (33.3)
4200m - 5:47.25 - (33.1)
4600m - 6:20.26 - (33.0)
5000m - 6:53.29 - (33.0)
32.06 5